OKPUS LKHV-LKPC

Flight info

Callsign OKPUS
Flight time 0h 23m
Altitude 5500
Route DIR
Aircraft C152/L-VD/A

Departure

Time 2026-04-19 19:11
Airport Hořovice Airfield (LKHV)

Arrival

Time 2026-04-19 19:35
Airport Panensky Tynec Airfield (LKPC)
Time Latitude Longitude Altitude Speed Heading
2026-04-19 19:01 49.84449 13.88555 1225 ft 0 kts 159°
2026-04-19 19:06 49.84459 13.88526 1225 ft 12 kts 289°
2026-04-19 19:07 49.84432 13.88365 1225 ft 18 kts 281°
2026-04-19 19:07 49.84509 13.88361 1224 ft 19 kts 66°
2026-04-19 19:07 49.84575 13.88592 1226 ft 26 kts 66°
2026-04-19 19:07 49.84620 13.88738 1226 ft 7 kts 59°
2026-04-19 19:08 49.84659 13.88864 1226 ft 17 kts 66°
2026-04-19 19:08 49.84715 13.89059 1224 ft 21 kts 65°
2026-04-19 19:08 49.84776 13.89261 1224 ft 20 kts 63°
2026-04-19 19:08 49.84837 13.89456 1225 ft 19 kts 67°
2026-04-19 19:09 49.84884 13.89646 1227 ft 20 kts 69°
2026-04-19 19:09 49.84946 13.89852 1228 ft 22 kts 66°
2026-04-19 19:09 49.85018 13.90101 1226 ft 28 kts 65°
2026-04-19 19:09 49.85094 13.90383 1225 ft 21 kts 100°
2026-04-19 19:10 49.85062 13.90442 1225 ft 5 kts 10°
2026-04-19 19:10 49.85080 13.90412 1225 ft 0 kts 322°
2026-04-19 19:10 49.85091 13.90377 1225 ft 13 kts 264°
2026-04-19 19:10 49.84999 13.90036 1227 ft 59 kts 245°
2026-04-19 19:11 49.84784 13.89299 1250 ft 85 kts 245°
2026-04-19 19:11 49.84545 13.88499 1478 ft 79 kts 244°
2026-04-19 19:11 49.84301 13.87756 1687 ft 76 kts 243°
2026-04-19 19:11 49.84103 13.87013 1862 ft 75 kts 271°
2026-04-19 19:12 49.84413 13.86477 2083 ft 72 kts 333°
2026-04-19 19:12 49.84872 13.86115 2232 ft 79 kts 327°
2026-04-19 19:12 49.85361 13.85641 2349 ft 85 kts 326°
2026-04-19 19:12 49.85946 13.85629 2459 ft 92 kts 28°
2026-04-19 19:13 49.86366 13.86377 2594 ft 91 kts 62°
2026-04-19 19:13 49.86614 13.87281 2740 ft 92 kts 67°
2026-04-19 19:13 49.86871 13.88196 2855 ft 93 kts 65°
2026-04-19 19:13 49.87158 13.89127 2931 ft 98 kts 62°
2026-04-19 19:14 49.87704 13.89670 2968 ft 100 kts 357°
2026-04-19 19:14 49.88384 13.89521 2985 ft 96 kts 348°
2026-04-19 19:14 49.89011 13.89347 2987 ft 88 kts 348°
2026-04-19 19:14 49.89606 13.89218 2987 ft 85 kts 353°
2026-04-19 19:15 49.90188 13.89166 2986 ft 83 kts 358°
2026-04-19 19:15 49.90760 13.89210 2986 ft 82 kts
2026-04-19 19:15 49.91325 13.89291 2989 ft 81 kts
2026-04-19 19:15 49.91883 13.89367 2991 ft 82 kts
2026-04-19 19:16 49.92461 13.89432 2995 ft 84 kts
2026-04-19 19:16 49.93053 13.89491 2995 ft 86 kts
2026-04-19 19:16 49.93628 13.89550 3093 ft 75 kts
2026-04-19 19:16 49.94103 13.89599 3211 ft 64 kts
2026-04-19 19:17 49.94549 13.89641 3287 ft 62 kts
2026-04-19 19:17 49.94984 13.89680 3430 ft 65 kts
2026-04-19 19:17 49.95465 13.89734 3570 ft 73 kts
2026-04-19 19:17 49.95987 13.89800 3709 ft 78 kts
2026-04-19 19:18 49.96538 13.89868 3844 ft 81 kts
2026-04-19 19:18 49.97108 13.89930 3978 ft 83 kts
2026-04-19 19:18 49.97688 13.89991 4117 ft 86 kts
2026-04-19 19:18 49.98290 13.90054 4255 ft 87 kts
2026-04-19 19:19 49.98900 13.90115 4394 ft 88 kts
2026-04-19 19:19 49.99515 13.90175 4524 ft 88 kts
2026-04-19 19:19 50.00127 13.90238 4650 ft 88 kts
2026-04-19 19:20 50.01353 13.90370 4838 ft 91 kts
2026-04-19 19:20 50.01991 13.90440 4871 ft 93 kts
2026-04-19 19:20 50.02642 13.90510 4885 ft 95 kts
2026-04-19 19:20 50.03305 13.90588 4891 ft 96 kts
2026-04-19 19:21 50.03975 13.90661 4893 ft 97 kts
2026-04-19 19:21 50.04654 13.90727 4894 ft 98 kts
2026-04-19 19:21 50.05327 13.90793 4899 ft 98 kts
2026-04-19 19:21 50.06013 13.90863 4897 ft 98 kts
2026-04-19 19:22 50.06696 13.90935 4893 ft 98 kts
2026-04-19 19:22 50.07379 13.91009 4895 ft 98 kts
2026-04-19 19:22 50.08061 13.91081 4894 ft 98 kts
2026-04-19 19:22 50.08744 13.91152 4894 ft 98 kts
2026-04-19 19:23 50.09428 13.91225 4895 ft 98 kts
2026-04-19 19:23 50.10115 13.91299 4895 ft 98 kts
2026-04-19 19:23 50.10798 13.91372 4894 ft 98 kts
2026-04-19 19:23 50.11470 13.91446 4892 ft 95 kts
2026-04-19 19:24 50.12109 13.91515 4891 ft 92 kts
2026-04-19 19:24 50.12744 13.91581 4891 ft 91 kts
2026-04-19 19:24 50.13376 13.91646 4893 ft 91 kts
2026-04-19 19:24 50.14009 13.91714 4894 ft 91 kts
2026-04-19 19:25 50.14639 13.91781 4893 ft 90 kts
2026-04-19 19:25 50.15263 13.91848 4893 ft 90 kts
2026-04-19 19:25 50.15883 13.91946 4892 ft 89 kts
2026-04-19 19:25 50.16503 13.92009 4892 ft 89 kts
2026-04-19 19:26 50.17122 13.92037 4827 ft 95 kts
2026-04-19 19:26 50.17782 13.92099 4654 ft 91 kts
2026-04-19 19:26 50.18391 13.92179 4476 ft 85 kts
2026-04-19 19:26 50.18969 13.92253 4295 ft 82 kts
2026-04-19 19:27 50.19531 13.92313 4115 ft 80 kts
2026-04-19 19:27 50.20096 13.92367 3951 ft 84 kts
2026-04-19 19:27 50.20685 13.92427 3783 ft 85 kts
2026-04-19 19:27 50.21257 13.92490 3677 ft 79 kts
2026-04-19 19:28 50.21776 13.92544 3580 ft 75 kts
2026-04-19 19:28 50.22302 13.92599 3472 ft 74 kts
2026-04-19 19:28 50.22790 13.92652 3418 ft 67 kts
2026-04-19 19:28 50.23269 13.92700 3405 ft 73 kts
2026-04-19 19:29 50.23821 13.92757 3399 ft 86 kts
2026-04-19 19:29 50.24466 13.92836 3292 ft 98 kts
2026-04-19 19:29 50.25163 13.92922 3139 ft 101 kts
2026-04-19 19:29 50.25840 13.92998 2978 ft 94 kts
2026-04-19 19:30 50.26481 13.93060 2830 ft 90 kts
2026-04-19 19:30 50.27071 13.93118 2752 ft 82 kts
2026-04-19 19:30 50.27622 13.93175 2636 ft 78 kts
2026-04-19 19:30 50.28141 13.93221 2534 ft 70 kts 355°
2026-04-19 19:31 50.28628 13.93100 2514 ft 75 kts 15°
2026-04-19 19:31 50.28965 13.93692 2502 ft 77 kts 79°
2026-04-19 19:31 50.28973 13.94525 2500 ft 77 kts 94°
2026-04-19 19:31 50.28938 13.95366 2501 ft 78 kts 94°
2026-04-19 19:32 50.28904 13.96232 2501 ft 81 kts 94°
2026-04-19 19:32 50.28869 13.97130 2383 ft 89 kts 94°
2026-04-19 19:32 50.28817 13.98049 2256 ft 76 kts 95°
2026-04-19 19:32 50.29000 13.98752 2094 ft 74 kts 34°
2026-04-19 19:33 50.29490 13.98800 1894 ft 75 kts 342°
2026-04-19 19:33 50.29977 13.98567 1763 ft 72 kts 342°
2026-04-19 19:33 50.30398 13.98259 1685 ft 65 kts 309°
2026-04-19 19:33 50.30632 13.97670 1597 ft 66 kts 290°
2026-04-19 19:34 50.30762 13.96973 1424 ft 68 kts 278°
2026-04-19 19:34 50.30754 13.96248 1274 ft 64 kts 266°
2026-04-19 19:34 50.30723 13.95531 1194 ft 65 kts 266°
2026-04-19 19:34 50.30691 13.94864 1157 ft 57 kts 265°
2026-04-19 19:35 50.30673 13.94537 1163 ft 7 kts 224°
2026-04-19 19:35 50.30644 13.94607 1163 ft 12 kts 129°
2026-04-19 19:35 50.30610 13.94703 1160 ft 0 kts 79°